Abingdon, VA

10:11 AM EDT on May 23, 2017 (GMT -0400)
Virginia Highlands

Weather History for KVJI - January, 2014

Change the Weather History Date:

Monday, January 6, 2014

  Actual Average (KTRI) Record (KTRI)
Temperature  
Mean Temperature 28 °F -  
Max Temperature 52 °F 44 °F 69 °F (1998)
Min Temperature 1 °F 27 °F 2 °F (2014)
Degree Days  
Heating Degree Days 38    
Moisture  
Dew Point 16 °F    
Average Humidity 80    
Maximum Humidity 100    
Minimum Humidity 57    
Precipitation  
Precipitation 0.13 in - - ()
Sea Level Pressure  
Sea Level Pressure 29.93 in    
Wind  
Wind Speed 13 mph (WNW)    
Max Wind Speed 20 mph    
Max Gust Speed 37 mph    
Visibility 8 miles    
Events Rain , Snow    
Averages and records for this station are not official NWS values.
T = Trace of Precipitation, MM = Missing Value Source: NWS Daily Summary

Daily Weather History Graph

Daily Weather History Graph

Search for Another Location

Airport or City:

Trip Planner

Search our weather history database for the weather conditions in past years. The results will help you decide how hot, cold, wet, or windy it might be!

Date:

Astronomy

Jan. 06, 2014 Rise Set
Actual Time 7:41 AM EST 5:27 PM EST
Civil Twilight 7:12 AM EST 5:55 PM EST
Nautical Twilight 6:40 AM EST 6:28 PM EST
Astronomical Twilight 6:08 AM EST 6:59 PM EST
Moon 11:05 AM EST (1/6) 11:48 PM EST (1/6)
Length of Visible Light 10h 43m
Length of Day
9h 46m
Waxing Crescent, 34% of the Moon is Illuminated
Jan 6
Waxing Crescent
Jan 7
First Quarter
Jan 15
Full
Jan 24
Last Quarter
Jan 30
New

Hourly Weather History & Observations

Time (EST) Temp. Windchill Dew Point Humidity Pressure Visibility Wind Dir Wind Speed Gust Speed Precip Events Conditions
12:15 AM 54.7 °F - 50.0 °F 84% 29.57 in 10.0 mi West 10.4 mph 17.3 mph 0.01 in Rain Light Rain
12:35 AM 53.6 °F - 50.9 °F 91% 29.56 in 10.0 mi WSW 11.5 mph 17.3 mph 0.03 in Rain Rain
12:55 AM 52.9 °F - 51.4 °F 95% 29.55 in 10.0 mi West 6.9 mph - 0.04 in Rain Light Rain
1:15 AM 51.6 °F - 51.1 °F 98% 29.59 in 5.0 mi WNW 18.4 mph 26.5 mph 0.05 in Rain Rain
1:35 AM 45.7 °F 38.3 °F 43.9 °F 93% 29.63 in 4.0 mi WNW 18.4 mph 32.2 mph 0.07 in Rain Rain
1:55 AM 44.4 °F 36.6 °F 42.6 °F 93% 29.67 in 10.0 mi WNW 18.4 mph 28.8 mph 0.07 in Rain Light Rain
2:15 AM 42.1 °F 33.3 °F 39.7 °F 91% 29.70 in 7.0 mi WNW 19.6 mph 36.8 mph 0.01 in   Drizzle
2:35 AM 40.1 °F 31.3 °F 38.3 °F 93% 29.73 in 5.0 mi WNW 17.3 mph 27.6 mph 0.01 in Rain Rain
2:55 AM 38.3 °F 29.3 °F 37.0 °F 95% 29.73 in 7.0 mi West 16.1 mph 21.9 mph 0.02 in Rain Light Rain
3:15 AM 37.0 °F 31.0 °F 36.5 °F 98% 29.75 in 10.0 mi West 8.1 mph 18.4 mph N/A Rain Light Rain
3:35 AM 36.1 °F 29.9 °F 36.1 °F 100% 29.76 in 4.0 mi West 8.1 mph - N/A Snow Light Snow
3:55 AM 35.1 °F 27.4 °F 35.1 °F 100% 29.76 in 3.0 mi West 10.4 mph - N/A Snow Light Snow
4:15 AM 34.7 °F 26.9 °F 34.7 °F 100% 29.76 in 2.0 mi West 10.4 mph - N/A Snow Light Snow
4:35 AM 33.8 °F 24.8 °F 33.8 °F 100% 29.76 in 5.0 mi West 12.7 mph 18.4 mph N/A Snow Light Snow
4:55 AM 33.3 °F 24.6 °F 32.5 °F 97% 29.78 in 10.0 mi WNW 11.5 mph 20.7 mph N/A   Overcast
5:15 AM 32.5 °F 23.2 °F 32.0 °F 98% 29.78 in 10.0 mi WNW 12.7 mph 18.4 mph N/A   Overcast
5:35 AM 32.0 °F 22.1 °F 30.9 °F 96% 29.78 in 10.0 mi WNW 13.8 mph 24.2 mph N/A   Overcast
5:55 AM 31.1 °F 20.5 °F 30.2 °F 96% 29.80 in 10.0 mi WNW 15.0 mph 18.4 mph N/A   Overcast
6:15 AM 30.4 °F 19.1 °F 29.3 °F 96% 29.80 in 10.0 mi WNW 16.1 mph 24.2 mph N/A   Overcast
6:35 AM 30.0 °F 19.5 °F 28.8 °F 95% 29.81 in 10.0 mi WNW 13.8 mph 23.0 mph N/A   Overcast
6:55 AM 29.3 °F 20.2 °F 28.0 °F 95% 29.83 in 10.0 mi NW 10.4 mph 18.4 mph N/A   Overcast
7:15 AM 28.4 °F 19.1 °F 27.1 °F 95% 29.84 in 10.0 mi WNW 10.4 mph 18.4 mph N/A   Overcast
7:35 AM 28.0 °F 18.6 °F 25.9 °F 92% 29.85 in 10.0 mi NNW 10.4 mph 20.7 mph N/A Snow Light Snow
7:55 AM 26.6 °F 18.2 °F 23.5 °F 88% 29.87 in 10.0 mi NNW 8.1 mph 18.4 mph N/A Snow Light Snow
8:15 AM 26.1 °F 16.8 °F 22.8 °F 88% 29.88 in 7.0 mi NNW 9.2 mph 17.3 mph N/A Snow Light Snow
8:35 AM 25.3 °F 15.3 °F 22.1 °F 87% 29.89 in 3.0 mi NNW 10.4 mph - N/A Snow Light Snow
8:55 AM 24.3 °F 12.7 °F 20.3 °F 85% 29.90 in 3.0 mi NW 12.7 mph 18.4 mph N/A Snow Light Snow
9:15 AM 23.5 °F 12.4 °F 20.3 °F 87% 29.91 in 1.8 mi NNW 11.5 mph 18.4 mph N/A Snow Light Snow
9:35 AM 23.0 °F 11.7 °F 20.3 °F 89% 29.92 in 1.5 mi NNW 11.5 mph - N/A Snow Light Snow
9:55 AM 23.0 °F 14.7 °F 20.1 °F 89% 29.93 in 1.8 mi NNW 6.9 mph 16.1 mph N/A Snow Light Snow
10:15 AM 23.2 °F 12.6 °F 21.0 °F 91% 29.93 in 1.2 mi WNW 10.4 mph - N/A Snow Light Snow
10:35 AM 22.1 °F 10.6 °F 19.8 °F 91% 29.94 in 1.0 mi WNW 11.5 mph 17.3 mph N/A Snow Light Snow
10:55 AM 21.7 °F 10.2 °F 18.7 °F 88% 29.94 in 2.5 mi West 11.5 mph 20.7 mph N/A Snow Light Snow
11:15 AM 22.1 °F 10.0 °F 18.3 °F 85% 29.93 in 10.0 mi West 12.7 mph - N/A Snow Light Snow
11:35 AM 21.7 °F 10.2 °F 18.0 °F 85% 29.92 in 3.0 mi West 11.5 mph 16.1 mph N/A Snow Light Snow
11:55 AM 21.7 °F 10.8 °F 17.1 °F 82% 29.92 in 10.0 mi West 10.4 mph 18.4 mph N/A   Overcast
12:15 PM 21.2 °F 8.3 °F 17.2 °F 85% 29.91 in 5.0 mi WNW 13.8 mph 20.7 mph N/A Snow Light Snow
12:35 PM 20.1 °F 5.4 °F 14.9 °F 80% 29.90 in 10.0 mi WNW 17.3 mph 23.0 mph N/A Snow Light Snow
12:55 PM 20.1 °F 6.4 °F 14.9 °F 80% 29.90 in 10.0 mi WNW 15.0 mph 23.0 mph N/A Snow Light Snow
1:15 PM 19.4 °F 5.0 °F 14.9 °F 83% 29.91 in 5.0 mi West 16.1 mph 23.0 mph N/A Snow Light Snow
1:35 PM 19.4 °F 5.5 °F 14.2 °F 80% 29.91 in 4.0 mi WNW 15.0 mph 25.3 mph N/A Snow Light Snow
1:55 PM 18.7 °F 4.0 °F 13.6 °F 81% 29.92 in 3.0 mi WNW 16.1 mph 24.2 mph N/A Snow Light Snow
2:15 PM 18.1 °F 3.4 °F 11.3 °F 75% 29.93 in 7.0 mi NW 16.1 mph 25.3 mph N/A Snow Light Snow
2:35 PM 17.4 °F 1.5 °F 11.1 °F 76% 29.95 in 5.0 mi NW 18.4 mph 25.3 mph N/A Snow Light Snow
2:55 PM 15.6 °F 1.8 °F 9.9 °F 78% 29.97 in 2.0 mi NW 12.7 mph 25.3 mph N/A Snow Light Snow
3:15 PM 14.9 °F -1.3 °F 6.6 °F 70% 29.98 in 10.0 mi WNW 17.3 mph 24.2 mph N/A   Mostly Cloudy
3:35 PM 14.9 °F -0.8 °F 4.6 °F 64% 29.99 in 10.0 mi WNW 16.1 mph 26.5 mph N/A   Mostly Cloudy
3:55 PM 14.2 °F -1.7 °F 1.6 °F 57% 29.99 in 10.0 mi West 16.1 mph 27.6 mph N/A   Scattered Clouds
4:15 PM 13.8 °F -2.7 °F 1.2 °F 57% 30.01 in 10.0 mi WNW 17.3 mph 24.2 mph N/A   Overcast
4:35 PM 12.7 °F -2.5 °F 1.6 °F 61% 30.02 in 10.0 mi WNW 13.8 mph 26.5 mph N/A   Overcast
4:55 PM 10.9 °F -6.5 °F 1.8 °F 67% 30.03 in 10.0 mi West 17.3 mph 24.2 mph N/A   Overcast
5:15 PM 10.4 °F -6.6 °F 1.6 °F 68% 30.04 in 7.0 mi West 16.1 mph 24.2 mph N/A   Overcast
5:35 PM 9.1 °F -5.6 °F -1.3 °F 63% 30.06 in 10.0 mi WNW 11.5 mph 23.0 mph N/A   Overcast
5:55 PM 8.2 °F -8.2 °F -2.0 °F 63% 30.06 in 10.0 mi WNW 13.8 mph 20.7 mph N/A   Overcast
6:15 PM 7.5 °F -10.3 °F -2.9 °F 62% 30.07 in 10.0 mi WNW 16.1 mph 21.9 mph N/A   Overcast
6:35 PM 6.6 °F -8.8 °F -4.0 °F 62% 30.09 in 10.0 mi WNW 11.5 mph 25.3 mph N/A   Overcast
6:55 PM 5.9 °F -11.2 °F -4.5 °F 62% 30.10 in 10.0 mi WNW 13.8 mph 21.9 mph N/A   Mostly Cloudy
7:15 PM 5.9 °F -11.2 °F -4.0 °F 64% 30.11 in 10.0 mi WNW 13.8 mph 19.6 mph N/A   Mostly Cloudy
7:35 PM 5.7 °F -10.7 °F -3.8 °F 65% 30.12 in 10.0 mi WNW 12.7 mph 20.7 mph N/A   Overcast
7:55 PM 5.0 °F -10.8 °F -4.7 °F 64% 30.13 in 10.0 mi WNW 11.5 mph 20.7 mph N/A   Overcast
8:15 PM 4.8 °F -12.5 °F -5.8 °F 62% 30.14 in 10.0 mi West 13.8 mph 23.0 mph N/A   Overcast
8:35 PM 4.1 °F -12.7 °F -5.8 °F 64% 30.16 in 10.0 mi WNW 12.7 mph 18.4 mph N/A   Overcast
8:55 PM 3.7 °F -15.2 °F -6.9 °F 61% 30.16 in 10.0 mi WNW 16.1 mph 26.5 mph N/A   Overcast
9:15 PM 3.2 °F -17.1 °F -7.6 °F 61% 30.17 in 10.0 mi WNW 18.4 mph 24.2 mph N/A   Overcast
9:35 PM 2.8 °F -15.0 °F -7.2 °F 63% 30.18 in 10.0 mi WNW 13.8 mph 21.9 mph N/A   Scattered Clouds
9:55 PM 2.3 °F -13.4 °F -7.4 °F 64% 30.18 in 10.0 mi WNW 10.4 mph 20.7 mph N/A   Scattered Clouds
10:15 PM 2.1 °F -14.4 °F -6.9 °F 66% 30.19 in 10.0 mi WNW 11.5 mph 25.3 mph N/A   Mostly Cloudy
10:35 PM 1.9 °F -14.7 °F -7.6 °F 64% 30.19 in 10.0 mi WNW 11.5 mph 20.7 mph N/A   Overcast
10:55 PM 1.8 °F -14.0 °F -8.0 °F 64% 30.19 in 10.0 mi WNW 10.4 mph 24.2 mph N/A   Scattered Clouds
11:15 PM 1.4 °F -17.6 °F -7.1 °F 68% 30.19 in 10.0 mi WNW 15.0 mph 18.4 mph N/A   Scattered Clouds
11:35 PM 1.4 °F -16.1 °F -6.0 °F 71% 30.20 in 10.0 mi WNW 12.7 mph 18.4 mph N/A   Mostly Cloudy
11:55 PM 1.4 °F -13.5 °F -4.0 °F 78% 30.20 in 4.0 mi WNW 9.2 mph - N/A Snow Light Snow